Weather in Sobotka

Czech Republic     50°28′02″N   15°10′37″E
temp.,
°C
wind,
m/s
gust,
m/s
humid.,
%
clouds,
%
prec.,
mm/h
press.,
hPa
HPBL,
m
9 march, tue
tue901:00−3se116619 0.0 102321
04:00−3e116556 0.0 102221
07:00−2e126178 0.0 102281
10:00+1se2346100 0.0 1022745
13:00+2sse2342100 0.0 10211187
16:00+2se1241100 0.0 10201045
19:00−1e1153100 0.0 102021
22:00−2e115587 0.0 102121
10 march, wed
wed1001:00−3ene115752 0.0 102121
04:00−3e11560 0.0 102021
07:00−2e11550 0.0 102123
10:00+3sse22460 0.0 1022531
13:00+5s21490 0.0 10211239
16:00+4wsw225981 0.0 10211061
19:000ese007664 0.0 102222
22:00−1e11806 0.0 102221
11 march, thu
thu1101:00−2ese228220 0.0 102138
04:00−2e238646 0.0 101876
07:00−1ese368771 0.0 1017260
10:00+2sse4883100 0.1 1015545
13:00+4s51092100 0.8 1012604
16:00+4sse3884100 0.6 1009297
19:00+4se3493100 0.8 1008105
22:00+3se2296100 1.3 100762
12 march, fri
fri1201:00+5nw2796100 3.9 1008292
04:00+3wsw4148981 0.1 1010532
07:00+2w3128857 0.5 1013674
10:00+6w6106428 0.0 10141399
13:00+8wsw585756 0.1 10141544
16:00+8wsw695324 0.0 10131736
19:00+4sw387322 0.0 1013214
22:00+3ssw2780100 0.0 1013197
13 march, sat
sat1301:00+2ssw3108779 0.1 1012284
04:00+3sw4128672 0.0 1011819
07:00+4sw5128786 0.1 1011682
10:00+6sw61174100 0.1 10111176
13:00+7sw71073100 0.2 10101136
16:00+7sw51273100 0.2 10081403
19:00+6ssw41479100 0.4 10071337
22:00+5s31380100 0.1 1006841